This is the latest recevied weather packets stored in our database for station/object N3DXC. If no packets are shown the sender has not sent any weather packets the latest 10 day(s).
| Time | Temp. | Humidity | Pressure | Rain* | Wind** | Luminosity | Snow |
|---|---|---|---|---|---|---|---|
| 1778253281 | 11.67° C | 57% | 1013.5 hPa | 0 mm | - | - | - |
| 1778252981 | 11.11° C | 58% | 1013.5 hPa | 0 mm | - | - | - |
| 1778252681 | 11.67° C | 56% | 1013.5 hPa | 0 mm | - | - | - |
| 1778252382 | 12.22° C | 57% | 1013.4 hPa | 0 mm | - | - | - |
| 1778252083 | 11.67° C | 57% | 1013.5 hPa | 0 mm | - | - | - |
| 1778251782 | 11.67° C | 58% | 1013.5 hPa | 0 mm | - | - | - |
| 1778251482 | 11.67° C | 61% | 1013.5 hPa | 0 mm | - | - | - |
| 1778251182 | 11.11° C | 59% | 1013.6 hPa | 0 mm | - | - | - |
| 1778250883 | 10.56° C | 60% | 1013.6 hPa | 0 mm | - | - | - |
| 1778250582 | 10.56° C | 59% | 1013.6 hPa | 0 mm | - | - | - |
| 1778250282 | 10.56° C | 59% | 1013.6 hPa | 0 mm | - | - | - |
| 1778249982 | 10.56° C | 60% | 1013.6 hPa | 0 mm | - | - | - |
| 1778249682 | 10.56° C | 60% | 1013.6 hPa | 0 mm | - | - | - |
| 1778249382 | 10° C | 62% | 1013.5 hPa | 0 mm | - | - | - |
| 1778249085 | 10.56° C | 62% | 1013.5 hPa | 0 mm | - | - | - |
| 1778248782 | 10° C | 64% | 1013.4 hPa | 0 mm | - | - | - |
| 1778248482 | 10° C | 64% | 1013.4 hPa | 0 mm | - | - | - |
| 1778248182 | 9.44° C | 64% | 1013.3 hPa | 0 mm | - | - | - |
| 1778247882 | 9.44° C | 64% | 1013.3 hPa | 0 mm | - | - | - |
| 1778247582 | 9.44° C | 64% | 1013.5 hPa | 0 mm | - | - | - |
| 1778247282 | 9.44° C | 65% | 1013.5 hPa | 0 mm | - | - | - |
| 1778246982 | 9.44° C | 64% | 1013.5 hPa | 0 mm | - | - | - |
| 1778246682 | 9.44° C | 65% | 1013.5 hPa | 0 mm | - | - | - |
| 1778246382 | 9.44° C | 64% | 1013.5 hPa | 0 mm | - | - | - |
| 1778246083 | 9.44° C | 66% | 1013.5 hPa | 0 mm | - | - | - |
* Rain latest hour (hover to see other rain measurements)
** Current wind speed in m/s (hover to see current wind gust speed)